{"data":{"norad_id":45679,"intl_designator":"2020-035Y","name":"STARLINK-1394","alt_names":[],"object_type":"PAYLOAD","status":"ACTIVE","operator":null,"country":"US","launch_date":"2020-06-04","launch_site_code":"AFETR","launch_vehicle":null,"mission":null,"orbit_class":"UNKNOWN","rcs_meters":null,"size_class":null,"mass_kg":null,"dimensions":null,"purposes":["comms"],"wikipedia_slug":null,"has_3d_model":false,"image_url":null,"decayed_at":null,"tle_current":{"epoch":"2026-05-25T01:57:14.420160Z","epoch_age_seconds":67389,"freshness":"FRESH","line1":"1 45679U 20035Y   26145.08141690  .00092025  00000+0  98693-3 0  9993","line2":"2 45679  53.0422  26.2525 0006792 109.2846 250.8902 15.63054357331052","mean_motion":15.63054357,"eccentricity":0.0006792,"inclination_deg":53.0422,"raan_deg":26.2525,"arg_perigee_deg":109.2846,"mean_anomaly_deg":250.8902,"bstar":0.00098693,"rev_number":33105,"period_min":92.127314290196,"perigee_km":374.25086500541,"apogee_km":383.42954283922,"semimajor_km":6756.9772039223,"source":"CELESTRAK","updated_at":"2026-05-25T13:38:16.428809Z"}}}